#timestamp,LO_Frequency,Hit,StdDev 
1562817615.8,286047003.1,N
1562817635.7,286047002.9,N
1562817655.5,286047005.0,Y
1562817675.3,286047001.6,P
1562817695.2,286046999.9,N
1562817715.3,286047000.3,N
1562817735.2,286047002.7,N
1562817755.0,286046999.8,N
1562817755.9,286046999.8,N
1562817775.7,286047002.2,N
1562817795.6,286047000.2,N
1562817815.4,286047000.3,N
1562817835.3,286046999.7,N
1562817855.1,286047001.9,N
1562817875.8,286047001.8,N
1562817895.7,286047002.8,N
1562817915.5,286046999.8,N
1562817935.4,286047001.0,N
1562817955.2,286046999.8,N
1562817975.0,286047000.0,N
1562817975.9,286047000.0,N
1562817995.8,286047000.7,N
1562818015.6,286047000.9,N
1562818035.5,286047001.0,N
1562818055.3,286047000.5,N
1562818075.1,286047002.6,N
1562818095.9,286047002.1,N
1562818115.7,286047002.2,N
1562818135.6,286047003.6,Y
1562818155.4,286047001.8,P
1562818175.2,286047002.3,P
1562818195.1,286047002.8,P
1562818196.0,286047002.8,Y
1562818215.8,286046998.2,P
1562818235.7,286047000.0,N
1562818255.5,286047000.3,N
1562818275.3,286046998.9,N
1562818295.2,286046998.2,N
1562818315.0,286046996.7,N
1562818315.9,286046996.7,N
1562818335.8,286046997.5,N
1562818355.6,286046997.4,N
1562818375.6,286046996.6,N
1562818395.5,286046996.8,N
1562818415.3,286046997.2,N
1562818435.2,286046999.6,N
1562818455.9,286046996.8,N
1562818475.7,286046995.2,Y
1562818495.6,286046998.8,P
1562818515.4,286047000.9,N
1562818535.3,286046998.6,N
1562818555.1,286046999.0,N
1562818556.0,286046999.0,N
1562818575.8,286046999.3,N
1562818595.7,286046996.9,Y
1562818615.5,286046998.4,P
1562818635.5,286047000.0,N
1562818655.3,286047001.0,N
1562818675.2,286047002.5,N
1562818695.0,286047000.2,N
1562818695.9,286047000.2,N
1562818715.8,286047001.5,N
1562818735.6,286047002.5,N
1562818755.4,286046999.8,N
1562818775.3,286047001.8,N
1562818795.1,286047001.8,N
1562818815.9,286047002.1,N
1562818835.7,286047002.0,N
1562818855.5,286047002.1,N
1562818875.4,286047002.4,N
1562818895.2,286047004.4,Y
1562818915.0,286047002.4,P
1562818915.9,286047002.4,P
1562818935.8,286046999.7,N
1562818955.6,286047000.1,N
1562818975.5,286047001.9,N
1562818995.3,286046999.8,N
1562819015.1,286047001.7,N
1562819035.9,286047002.1,N
1562819055.7,286047002.5,N
1562819075.5,286047002.1,N
1562819095.4,286046999.7,N
1562819115.2,286047004.0,Y
1562819135.1,286047000.6,P
1562819136.0,286047000.6,N
1562819155.8,286047002.3,P
1562819175.6,286047000.0,N
1562819195.5,286047001.2,N
1562819215.3,286046999.6,N
1562819235.2,286046999.3,N
1562819255.9,286046996.8,Y
1562819275.7,286046995.9,P
1562819295.6,286046995.5,N
1562819315.4,286046996.0,N
1562819335.3,286046997.7,N
1562819355.1,286046997.1,N
1562819356.0,286046997.1,N
1562819375.8,286046997.2,N
1562819395.7,286046997.2,N
1562819415.5,286046997.2,N
1562819435.3,286046996.7,N
1562819455.2,286046999.2,N
1562819475.0,286046996.5,N
1562819475.9,286046996.5,N
1562819495.8,286046997.5,N
1562819515.6,286046997.4,N
1562819535.4,286046997.0,N
1562819555.3,286046998.0,N
1562819575.1,286046995.8,Y
1562819595.9,286046998.1,P
1562819615.7,286046999.6,N
1562819635.5,286046996.5,P
1562819655.4,286046998.8,N
1562819675.2,286046998.1,N
1562819695.1,286046998.7,N
1562819696.0,286046998.7,N
1562819715.8,286046998.9,N
1562819735.6,286046999.1,N
1562819755.5,286046999.0,N
1562819775.3,286046997.2,Y
1562819795.2,286046998.4,P
1562819815.9,286046997.0,P
1562819835.7,286046996.9,P
1562819855.6,286046999.6,N
1562819875.7,286046997.4,N
1562819895.5,286046997.9,N
1562819915.4,286046995.3,Y
1562819935.2,286046999.4,P
1562819955.0,286046998.4,N
1562819955.9,286046998.4,N
1562819975.8,286047001.0,N
1562819995.6,286046998.2,N
1562820015.4,286046998.3,N
1562820035.3,286046999.5,N
1562820055.1,286046999.4,N
1562820075.9,286046996.8,Y
1562820095.7,286046998.9,P
1562820115.5,286046998.2,P
1562820135.4,286047000.3,N
1562820155.2,286047000.0,N
1562820175.0,286047000.3,N
1562820176.0,286047000.3,N
1562820195.8,286046999.8,N
1562820215.6,286047001.9,N
1562820235.5,286047004.0,Y
1562820255.3,286047002.5,P
1562820275.1,286046999.7,N
1562820295.9,286047000.1,N
1562820315.7,286047000.4,N
1562820335.6,286047000.4,N
1562820355.4,286047002.7,N
1562820375.2,286047001.7,N
1562820395.1,286047002.0,N
1562820396.0,286047002.0,N
1562820415.8,286047004.3,Y
1562820435.7,286047002.7,P
1562820455.5,286046998.2,N
1562820475.3,286046998.5,N
1562820495.2,286047000.8,N
1562820515.9,286046999.9,N
1562820535.7,286046999.8,N
1562820555.6,286047001.5,N
1562820575.4,286047001.5,N
1562820595.3,286047003.9,N
1562820615.1,286047002.7,N
1562820616.0,286047002.7,N
1562820635.8,286047000.5,N
1562820655.7,286046999.9,N
1562820675.5,286047002.7,N
1562820695.3,286047002.0,N
1562820715.2,286046999.7,N
1562820735.0,286046999.7,N
1562820735.9,286046999.7,N
1562820755.8,286047001.9,N
1562820775.6,286047001.5,N
1562820795.4,286047003.7,N
1562820815.3,286047003.9,N
1562820835.1,286047000.1,N
1562820855.8,286047001.7,N
1562820875.7,286047004.2,N
1562820895.5,286047003.3,N
1562820915.4,286047003.8,N
1562820935.2,286047003.2,N
1562820955.0,286047001.3,N
1562820955.9,286047001.3,N
1562820975.8,286047003.3,N
1562820995.6,286047002.9,N
1562821015.5,286047003.6,N
1562821035.3,286047003.6,N
1562821055.3,286047005.8,Y
1562821075.1,286047004.4,P
1562821095.9,286047002.4,N
1562821115.8,286047002.2,N
1562821135.7,286047003.9,Y
1562821155.5,286047000.7,P
1562821175.3,286046998.6,N
1562821195.2,286047000.6,N
